Time,TemperatureF,DewpointF,PressureIn,WindDirection,WindDirectionDegrees,WindSpeedMPH,WindSpeedGustMPH,Humidity,HourlyPrecipIn,Conditions,Clouds,dailyrainin,SoftwareType,DateUTC
2013-08-05 00:11:00,72.0,65.8,30.01,SW,225,1.0,11.0,81,0.00,,,-99.99,Weather View 32 v60,2013-08-05 05:11:00,
2013-08-05 00:14:00,71.0,65.2,30.01,SW,225,7.0,11.0,82,0.00,,,-99.99,Weather View 32 v60,2013-08-05 05:14:00,
2013-08-05 00:29:00,71.0,65.2,30.01,SSW,202,2.0,11.0,82,0.00,,,-99.99,Weather View 32 v60,2013-08-05 05:29:00,
2013-08-05 00:44:00,70.0,64.2,30.00,WSW,247,0.0,11.0,82,0.00,,,-99.99,Weather View 32 v60,2013-08-05 05:44:00,
2013-08-05 00:59:00,70.0,64.2,30.01,WNW,292,0.0,10.0,82,0.00,,,-99.99,Weather View 32 v60,2013-08-05 05:59:00,
2013-08-05 01:12:00,70.0,64.2,30.01,WNW,292,0.0,10.0,82,0.00,,,-99.99,Weather View 32 v60,2013-08-05 06:12:00,
2013-08-05 01:14:00,70.0,64.2,29.99,WNW,292,6.0,10.0,82,0.00,,,-99.99,Weather View 32 v60,2013-08-05 06:14:00,
2013-08-05 01:29:00,69.0,62.9,29.99,WNW,292,0.0,10.0,81,0.00,,,-99.99,Weather View 32 v60,2013-08-05 06:29:00,
2013-08-05 01:44:00,69.0,62.9,29.99,West,270,8.0,11.0,81,0.00,,,-99.99,Weather View 32 v60,2013-08-05 06:44:00,
2013-08-05 01:59:00,69.0,62.6,29.99,SW,225,6.0,11.0,80,0.00,,,-99.99,Weather View 32 v60,2013-08-05 06:59:00,
2013-08-05 02:12:00,69.0,62.6,29.99,SW,225,6.0,11.0,80,0.00,,,-99.99,Weather View 32 v60,2013-08-05 07:12:00,
2013-08-05 02:29:00,68.0,61.2,29.99,SW,225,0.0,11.0,79,0.00,,,-99.99,Weather View 32 v60,2013-08-05 07:29:00,
2013-08-05 02:44:00,67.0,58.8,29.99,WNW,292,0.0,11.0,75,0.00,,,-99.99,Weather View 32 v60,2013-08-05 07:44:00,
2013-08-05 02:59:00,67.0,59.2,29.99,West,270,0.0,8.0,76,0.00,,,-99.99,Weather View 32 v60,2013-08-05 07:59:00,
2013-08-05 03:13:00,67.0,59.2,29.99,West,270,0.0,8.0,76,0.00,,,-99.99,Weather View 32 v60,2013-08-05 08:13:00,
2013-08-05 03:29:00,67.0,56.9,29.98,SSW,202,3.0,8.0,70,0.00,,,-99.99,Weather View 32 v60,2013-08-05 08:29:00,
2013-08-05 03:44:00,67.0,56.9,29.98,WSW,247,4.0,8.0,70,0.00,,,-99.99,Weather View 32 v60,2013-08-05 08:44:00,
2013-08-05 03:59:00,67.0,56.9,29.97,SW,225,0.0,9.0,70,0.00,,,-99.99,Weather View 32 v60,2013-08-05 08:59:00,
2013-08-05 04:13:00,67.0,56.9,29.97,SW,225,0.0,9.0,70,0.00,,,-99.99,Weather View 32 v60,2013-08-05 09:13:00,
2013-08-05 04:29:00,68.0,58.2,29.97,SSW,202,3.0,11.0,71,0.00,,,-99.99,Weather View 32 v60,2013-08-05 09:29:00,
2013-08-05 04:44:00,68.0,59.0,29.96,SW,225,6.0,11.0,73,0.00,,,-99.99,Weather View 32 v60,2013-08-05 09:44:00,
2013-08-05 04:59:00,68.0,58.2,29.96,SSW,202,5.0,11.0,71,0.00,,,-99.99,Weather View 32 v60,2013-08-05 09:59:00,
2013-08-05 05:14:00,68.0,58.2,29.96,SSW,202,5.0,11.0,71,0.00,,,-99.99,Weather View 32 v60,2013-08-05 10:14:00,
2013-08-05 05:30:00,68.0,58.2,29.96,WNW,292,2.0,10.0,71,0.00,,,-99.99,Weather View 32 v60,2013-08-05 10:30:00,
2013-08-05 05:44:00,68.0,58.2,29.97,SW,225,0.0,10.0,71,0.00,,,-99.99,Weather View 32 v60,2013-08-05 10:44:00,
2013-08-05 05:59:00,68.0,57.8,29.97,SW,225,4.0,9.0,70,0.00,,,-99.99,Weather View 32 v60,2013-08-05 10:59:00,
2013-08-05 06:14:00,67.0,55.6,29.96,WSW,247,0.0,9.0,67,0.00,,,-99.99,Weather View 32 v60,2013-08-05 11:14:00,
2013-08-05 06:29:00,67.0,55.6,29.97,WSW,247,1.0,9.0,67,0.00,,,-99.99,Weather View 32 v60,2013-08-05 11:29:00,
2013-08-05 06:44:00,67.0,54.4,29.96,SW,225,4.0,9.0,64,0.00,,,-99.99,Weather View 32 v60,2013-08-05 11:44:00,
2013-08-05 06:59:00,67.0,54.0,29.97,SW,225,3.0,9.0,63,0.00,,,-99.99,Weather View 32 v60,2013-08-05 11:59:00,
2013-08-05 07:15:00,67.0,53.5,29.97,WSW,247,0.0,9.0,62,0.00,,,-99.99,Weather View 32 v60,2013-08-05 12:15:00,
2013-08-05 07:29:00,67.0,53.5,29.97,West,270,0.0,9.0,62,0.00,,,-99.99,Weather View 32 v60,2013-08-05 12:29:00,
2013-08-05 07:44:00,68.0,54.5,29.97,WSW,247,0.0,9.0,62,0.00,,,-99.99,Weather View 32 v60,2013-08-05 12:44:00,
2013-08-05 07:59:00,68.0,54.5,29.97,NNW,337,0.0,8.0,62,0.00,,,-99.99,Weather View 32 v60,2013-08-05 12:59:00,
2013-08-05 08:14:00,68.0,54.0,29.97,WSW,247,0.0,7.0,61,0.00,,,-99.99,Weather View 32 v60,2013-08-05 13:14:00,
2013-08-05 08:30:00,68.0,54.0,29.96,ESE,112,0.0,7.0,61,0.00,,,-99.99,Weather View 32 v60,2013-08-05 13:30:00,
2013-08-05 08:44:00,68.0,54.0,29.97,ESE,112,0.0,6.0,61,0.00,,,-99.99,Weather View 32 v60,2013-08-05 13:44:00,
2013-08-05 08:59:00,68.0,54.0,29.99,NW,315,0.0,7.0,61,0.14,,,-99.99,Weather View 32 v60,2013-08-05 13:59:00,
2013-08-05 09:14:00,67.0,54.0,30.02,NNW,337,0.0,15.0,63,0.54,,,-99.99,Weather View 32 v60,2013-08-05 14:14:00,
2013-08-05 09:29:00,66.0,52.1,29.98,SSW,202,0.0,15.0,61,0.57,,,-99.99,Weather View 32 v60,2013-08-05 14:29:00,
2013-08-05 09:44:00,66.0,52.6,29.95,WNW,292,0.0,15.0,62,0.57,,,-99.99,Weather View 32 v60,2013-08-05 14:44:00,
2013-08-05 09:59:00,66.0,52.6,29.92,SW,225,0.0,15.0,62,0.43,,,-99.99,Weather View 32 v60,2013-08-05 14:59:00,
2013-08-05 10:14:00,67.0,53.1,29.92,SW,225,0.0,9.0,61,0.03,,,-99.99,Weather View 32 v60,2013-08-05 15:14:00,
2013-08-05 10:29:00,67.0,53.5,29.94,West,270,0.0,8.0,62,0.00,,,-99.99,Weather View 32 v60,2013-08-05 15:29:00,
2013-08-05 10:44:00,68.0,54.0,29.99,WNW,292,1.0,11.0,61,0.00,,,-99.99,Weather View 32 v60,2013-08-05 15:44:00,
2013-08-05 10:59:00,68.0,53.6,29.99,SW,225,0.0,11.0,60,0.01,,,-99.99,Weather View 32 v60,2013-08-05 15:59:00,
2013-08-05 11:14:00,68.0,53.6,29.97,SSW,202,0.0,11.0,60,0.01,,,-99.99,Weather View 32 v60,2013-08-05 16:14:00,
2013-08-05 11:29:00,69.0,54.5,29.96,SSW,202,0.0,11.0,60,0.01,,,-99.99,Weather View 32 v60,2013-08-05 16:29:00,
2013-08-05 11:44:00,69.0,54.5,29.93,WSW,247,0.0,9.0,60,0.01,,,-99.99,Weather View 32 v60,2013-08-05 16:44:00,
2013-08-05 11:59:00,69.0,54.5,29.92,SSE,157,0.0,7.0,60,0.00,,,-99.99,Weather View 32 v60,2013-08-05 16:59:00,
2013-08-05 12:14:00,71.0,59.0,29.92,NE,45,2.0,8.0,66,0.00,,,-99.99,Weather View 32 v60,2013-08-05 17:14:00,
2013-08-05 12:29:00,72.0,57.8,29.94,West,270,0.0,8.0,61,0.00,,,-99.99,Weather View 32 v60,2013-08-05 17:29:00,
2013-08-05 12:44:00,74.0,61.0,29.93,SW,225,0.0,8.0,64,0.00,,,-99.99,Weather View 32 v60,2013-08-05 17:44:00,
2013-08-05 12:59:00,74.0,63.1,29.92,SW,225,0.0,8.0,69,0.00,,,-99.99,Weather View 32 v60,2013-08-05 17:59:00,
2013-08-05 13:14:00,76.0,69.7,29.92,North,360,0.0,6.0,81,0.00,,,-99.99,Weather View 32 v60,2013-08-05 18:14:00,
2013-08-05 13:29:00,77.0,70.7,29.90,WSW,247,0.0,6.0,81,0.00,,,-99.99,Weather View 32 v60,2013-08-05 18:29:00,
2013-08-05 13:44:00,79.0,69.2,29.89,NW,315,0.0,6.0,72,0.00,,,-99.99,Weather View 32 v60,2013-08-05 18:44:00,
2013-08-05 13:59:00,80.0,68.0,29.88,WNW,292,0.0,5.0,67,0.00,,,-99.99,Weather View 32 v60,2013-08-05 18:59:00,
2013-08-05 14:14:00,82.0,69.0,29.87,WSW,247,0.0,3.0,65,0.00,,,-99.99,Weather View 32 v60,2013-08-05 19:14:00,
2013-08-05 14:29:00,81.0,69.8,29.87,WNW,292,0.0,3.0,69,0.00,,,-99.99,Weather View 32 v60,2013-08-05 19:29:00,
2013-08-05 14:44:00,82.0,69.0,29.87,NNW,337,0.0,0.0,65,0.00,,,-99.99,Weather View 32 v60,2013-08-05 19:44:00,
2013-08-05 14:59:00,84.0,71.8,29.86,NW,315,0.0,0.0,67,0.00,,,-99.99,Weather View 32 v60,2013-08-05 19:59:00,
2013-08-05 15:14:00,84.0,70.0,29.87,WSW,247,0.0,0.0,63,0.00,,,-99.99,Weather View 32 v60,2013-08-05 20:14:00,
2013-08-05 15:20:00,84.0,70.0,29.87,WSW,247,0.0,0.0,63,0.00,,,-99.99,Weather View 32 v60,2013-08-05 20:20:00,
2013-08-05 15:29:00,84.0,68.6,29.87,WSW,247,0.0,0.0,60,0.00,,,-99.99,Weather View 32 v60,2013-08-05 20:29:00,
2013-08-05 15:45:00,84.0,70.9,29.86,North,360,0.0,0.0,65,0.00,,,-99.99,Weather View 32 v60,2013-08-05 20:45:00,
2013-08-05 15:59:00,84.0,68.6,29.86,West,270,0.0,0.0,60,0.00,,,-99.99,Weather View 32 v60,2013-08-05 20:59:00,
2013-08-05 16:14:00,83.0,68.6,29.85,NW,315,0.0,0.0,62,0.00,,,-99.99,Weather View 32 v60,2013-08-05 21:14:00,
2013-08-05 16:20:00,83.0,68.6,29.85,NW,315,0.0,0.0,62,0.00,,,-99.99,Weather View 32 v60,2013-08-05 21:20:00,
2013-08-05 16:29:00,85.0,69.0,29.86,WSW,247,0.0,5.0,59,0.00,,,-99.99,Weather View 32 v60,2013-08-05 21:29:00,
2013-08-05 16:44:00,84.0,68.1,29.86,NNW,337,0.0,7.0,59,0.00,,,-99.99,Weather View 32 v60,2013-08-05 21:44:00,
2013-08-05 17:00:00,85.0,69.0,29.85,West,270,0.0,7.0,59,0.00,,,-99.99,Weather View 32 v60,2013-08-05 22:00:00,
2013-08-05 17:15:00,85.0,70.9,29.85,WSW,247,0.0,7.0,63,0.00,,,-99.99,Weather View 32 v60,2013-08-05 22:15:00,
2013-08-05 17:21:00,85.0,70.9,29.85,WSW,247,0.0,7.0,63,0.00,,,-99.99,Weather View 32 v60,2013-08-05 22:21:00,
2013-08-05 17:44:00,83.0,70.9,29.85,NW,315,0.0,5.0,67,0.00,,,-99.99,Weather View 32 v60,2013-08-05 22:44:00,
2013-08-05 17:59:00,82.0,70.8,29.86,NNE,22,0.0,7.0,69,0.00,,,-99.99,Weather View 32 v60,2013-08-05 22:59:00,
2013-08-05 18:14:00,82.0,70.3,29.86,NNW,337,0.0,7.0,68,0.00,,,-99.99,Weather View 32 v60,2013-08-05 23:14:00,
2013-08-05 18:21:00,82.0,70.3,29.86,NNW,337,0.0,7.0,68,0.00,,,-99.99,Weather View 32 v60,2013-08-05 23:21:00,
2013-08-05 18:29:00,81.0,70.2,29.85,NW,315,3.0,7.0,70,0.00,,,-99.99,Weather View 32 v60,2013-08-05 23:29:00,
2013-08-05 18:44:00,81.0,70.7,29.86,NW,315,0.0,7.0,71,0.00,,,-99.99,Weather View 32 v60,2013-08-05 23:44:00,
2013-08-05 18:59:00,81.0,71.1,29.85,NW,315,0.0,7.0,72,0.00,,,-99.99,Weather View 32 v60,2013-08-05 23:59:00,
2013-08-05 19:14:00,81.0,71.5,29.85,NW,315,0.0,7.0,73,0.00,,,-99.99,Weather View 32 v60,2013-08-06 00:14:00,
2013-08-05 19:22:00,81.0,71.5,29.85,NW,315,0.0,7.0,73,0.00,,,-99.99,Weather View 32 v60,2013-08-06 00:22:00,
2013-08-05 19:29:00,80.0,70.9,29.87,WSW,247,0.0,7.0,74,0.00,,,-99.99,Weather View 32 v60,2013-08-06 00:29:00,
2013-08-05 19:45:00,80.0,71.7,29.87,WSW,247,0.0,7.0,76,0.00,,,-99.99,Weather View 32 v60,2013-08-06 00:45:00,
2013-08-05 19:59:00,79.0,71.9,29.87,WSW,247,0.0,5.0,79,0.00,,,-99.99,Weather View 32 v60,2013-08-06 00:59:00,
2013-08-05 20:14:00,78.0,71.3,29.88,WSW,247,0.0,5.0,80,0.00,,,-99.99,Weather View 32 v60,2013-08-06 01:14:00,
2013-08-05 20:23:00,78.0,71.3,29.88,WSW,247,0.0,5.0,80,0.00,,,-99.99,Weather View 32 v60,2013-08-06 01:23:00,
2013-08-05 20:29:00,77.0,70.3,29.88,WSW,247,0.0,0.0,80,0.00,,,-99.99,Weather View 32 v60,2013-08-06 01:29:00,
2013-08-05 20:44:00,76.0,69.7,29.88,WSW,247,0.0,0.0,81,0.00,,,-99.99,Weather View 32 v60,2013-08-06 01:44:00,
2013-08-05 21:00:00,75.0,68.4,29.89,WSW,247,0.0,0.0,80,0.00,,,-99.99,Weather View 32 v60,2013-08-06 02:00:00,
2013-08-05 21:15:00,74.0,67.4,29.89,WSW,247,0.0,0.0,80,0.00,,,-99.99,Weather View 32 v60,2013-08-06 02:15:00,
2013-08-05 21:23:00,74.0,67.4,29.89,WSW,247,0.0,0.0,80,0.00,,,-99.99,Weather View 32 v60,2013-08-06 02:23:00,
2013-08-05 21:29:00,73.0,66.8,29.89,WSW,247,0.0,0.0,81,0.00,,,-99.99,Weather View 32 v60,2013-08-06 02:29:00,
2013-08-05 21:44:00,72.0,64.7,29.90,WSW,247,0.0,0.0,78,0.00,,,-99.99,Weather View 32 v60,2013-08-06 02:44:00,
2013-08-05 21:59:00,71.0,63.4,29.90,WSW,247,0.0,0.0,77,0.00,,,-99.99,Weather View 32 v60,2013-08-06 02:59:00,
2013-08-05 22:15:00,71.0,62.3,29.91,WSW,247,0.0,0.0,74,0.00,,,-99.99,Weather View 32 v60,2013-08-06 03:15:00,
2013-08-05 22:24:00,71.0,62.3,29.91,WSW,247,0.0,0.0,74,0.00,,,-99.99,Weather View 32 v60,2013-08-06 03:24:00,
2013-08-05 22:30:00,70.0,58.5,29.91,WSW,247,0.0,0.0,67,0.00,,,-99.99,Weather View 32 v60,2013-08-06 03:30:00,
2013-08-05 22:44:00,69.0,57.6,29.90,East,90,0.0,0.0,67,0.00,,,-99.99,Weather View 32 v60,2013-08-06 03:44:00,
2013-08-05 22:59:00,68.0,55.8,29.90,East,90,0.0,0.0,65,0.00,,,-99.99,Weather View 32 v60,2013-08-06 03:59:00,
2013-08-05 23:14:00,68.0,54.9,29.91,East,90,0.0,0.0,63,0.00,,,-99.99,Weather View 32 v60,2013-08-06 04:14:00,
2013-08-05 23:24:00,68.0,54.9,29.91,East,90,0.0,0.0,63,0.00,,,-99.99,Weather View 32 v60,2013-08-06 04:24:00,
2013-08-05 23:29:00,68.0,54.9,29.92,East,90,0.0,0.0,63,0.00,,,-99.99,Weather View 32 v60,2013-08-06 04:29:00,
2013-08-05 23:44:00,68.0,54.5,29.91,East,90,0.0,0.0,62,0.00,,,-99.99,Weather View 32 v60,2013-08-06 04:44:00,
2013-08-05 23:59:00,68.0,54.9,29.92,WSW,247,0.0,0.0,63,0.00,,,-99.99,Weather View 32 v60,2013-08-06 04:59:00,